{"data":{"norad_id":59892,"intl_designator":"2024-100H","name":"STARLINK-31977","alt_names":[],"object_type":"PAYLOAD","status":"ACTIVE","operator":null,"country":"US","launch_date":"2024-05-28","launch_site_code":"AFETR","launch_vehicle":null,"mission":null,"orbit_class":"UNKNOWN","rcs_meters":null,"size_class":null,"mass_kg":null,"dimensions":null,"purposes":["comms"],"wikipedia_slug":null,"has_3d_model":false,"image_url":null,"decayed_at":null,"tle_current":{"epoch":"2026-09-21T22:26:25.126656Z","epoch_age_seconds":50484,"freshness":"FRESH","line1":"1 59892U 24100H   26264.93501304 -.00000045  00000+0  78836-5 0  9991","line2":"2 59892  43.0022  89.8725 0001285 269.9957  90.0748 15.27578052131250","mean_motion":15.27578052,"eccentricity":0.0001285,"inclination_deg":43.0022,"raan_deg":89.8725,"arg_perigee_deg":269.9957,"mean_anomaly_deg":90.0748,"bstar":7.8836e-6,"rev_number":13125,"period_min":94.266868924613,"perigee_km":482.17326589576,"apogee_km":483.93659222152,"semimajor_km":6861.1919290586,"source":"CELESTRAK","updated_at":"2026-09-22T09:00:49.106938Z"}}}